GW4912 Weather Reports


Display with metric or nautical units.
time (UTC)temp
F
wind
direction
speed
MPH
gust
MPH
rain 1hr
in
rain 24hr
in
rain mn
in
humidity
%
barometer
mb
20260903065257 73 32 0.0 0.0 0.00 0.00 0.00 84 1015.1
20260903064756 73 32 0.0 0.0 0.00 0.00 0.00 84 1015.2
20260903064252 74 32 0.0 0.0 0.00 0.00 0.00 82 1015.1
20260903063748 74 32 0.0 0.0 0.00 0.00 0.00 82 1015.3
20260903063243 75 32 0.0 0.0 0.00 0.00 0.00 80 1015.4
20260903062739 75 283 0.0 0.0 0.00 0.00 0.00 80 1015.4
20260903062233 75 286 1.0 1.0 0.00 0.00 0.00 79 1015.7
20260903061730 76 284 0.0 1.0 0.00 0.00 0.00 78 1015.9
20260903061228 76 184 0.0 1.0 0.00 0.00 0.00 77 1015.8
20260903060723 76 148 2.0 2.0 0.00 0.00 0.00 77 1015.8
20260903060218 77 110 2.0 3.0 0.00 0.00 0.00 76 1015.9
20260903055715 77 161 0.0 3.0 0.00 0.00 0.00 75 1016.0
20260903055214 77 117 3.0 4.0 0.00 0.00 0.00 75 1016.0
20260903054709 77 180 2.0 5.0 0.00 0.00 0.00 76 1016.2
20260903054204 78 191 4.0 7.0 0.00 0.00 0.00 76 1016.2
20260903053701 78 96 3.0 7.0 0.00 0.00 0.00 77 1016.5
20260903053155 80 144 5.0 11.0 0.00 0.00 0.00 78 1016.2
20260903052651 80 98 4.0 9.0 0.00 0.00 0.00 80 1016.0
20260903052146 81 68 2.0 4.0 0.00 0.00 0.00 81 1014.8
20260903051641 81 337 2.0 5.0 0.00 0.00 0.00 81 1014.8
20260903051137 81 356 3.0 4.0 0.00 0.00 0.00 81 1014.7
20260903050637 81 337 3.0 4.0 0.00 0.00 0.00 81 1014.7
20260903050132 81 29 2.0 4.0 0.00 0.00 0.00 81 1014.7
20260903045631 81 288 2.0 2.0 0.00 0.00 0.00 81 1014.5
20260903045128 81 333 3.0 3.0 0.00 0.00 0.00 81 1014.4
20260903044623 81 322 2.0 3.0 0.00 0.00 0.00 82 1014.2
20260903044119 80 340 3.0 3.0 0.00 0.00 0.00 82 1014.3
20260903043615 80 322 2.0 3.0 0.00 0.00 0.00 82 1014.3
20260903043114 80 344 3.0 3.0 0.00 0.00 0.00 82 1014.2
20260903042609 80 308 2.0 2.0 0.00 0.00 0.00 81 1014.2
20260903042105 80 308 2.0 2.0 0.00 0.00 0.00 81 1014.2
20260903041602 80 308 2.0 2.0 0.00 0.00 0.00 81 1014.1
20260903041101 80 308 2.0 2.0 0.00 0.00 0.00 81 1014.0
20260903040600 80 308 2.0 2.0 0.00 0.00 0.00 81 1014.1
20260903040057 80 308 2.0 2.0 0.00 0.00 0.00 81 1013.9
20260903035552 80 308 2.0 2.0 0.00 0.00 0.00 81 1013.9
20260903035048 80 308 2.0 2.0 0.00 0.00 0.00 81 1013.9
20260903034543 80 339 0.0 2.0 0.00 0.00 0.00 81 1013.8
20260903034038 80 352 3.0 3.0 0.00 0.00 0.00 80 1013.7
20260903033533 81 2 2.0 4.0 0.00 0.00 0.00 79 1013.5
20260903033028 81 2 2.0 4.0 0.00 0.00 0.00 79 1013.3
20260903032523 0 0.0 0.0 0.00 0.00 0.00 1013.2
20260903032019 0 0.0 0.0 0.00 0.00 0.00 1013.3
20260903031518 0 0.0 0.0 0.00 0.00 0.00 1013.3
20260903031014 82 31 3.0 3.0 0.00 0.00 0.00 78 1013.4
20260903030509 82 31 3.0 3.0 0.00 0.00 0.00 78 1013.5
20260903030005 82 31 3.0 3.0 0.00 0.00 0.00 78 1013.7
20260903025500 82 31 3.0 3.0 0.00 0.00 0.00 78 1013.9
20260903024955 82 31 3.0 3.0 0.00 0.00 0.00 78 1013.9
20260903024454 82 31 3.0 3.0 0.00 0.00 0.00 78 1014.0
20260903023949 82 31 3.0 3.0 0.00 0.00 0.00 78 1014.1
20260903023446 82 31 3.0 3.0 0.00 0.00 0.00 78 1014.3
20260903022941 82 31 3.0 3.0 0.00 0.00 0.00 78 1014.2
20260903022440 82 31 3.0 3.0 0.00 0.00 0.00 78 1014.3
20260903021938 82 31 3.0 3.0 0.00 0.00 0.00 78 1014.4
20260903021434 82 31 3.0 3.0 0.00 0.00 0.00 78 1014.3
20260903020928 82 80 2.0 2.0 0.00 0.00 0.00 77 1014.4
20260903020424 83 346 2.0 2.0 0.00 0.00 0.00 76 1014.3
20260903015918 83 346 2.0 2.0 0.00 0.00 0.00 76 1014.3
20260903015414 83 346 2.0 2.0 0.00 0.00 0.00 76 1014.4
20260903014909 83 346 2.0 2.0 0.00 0.00 0.00 76 1014.5
20260903014403 83 346 2.0 2.0 0.00 0.00 0.00 76 1014.4
20260903013858 83 346 2.0 2.0 0.00 0.00 0.00 76 1014.6
20260903013357 83 346 2.0 2.0 0.00 0.00 0.00 76 1014.6
20260903012857 83 346 2.0 2.0 0.00 0.00 0.00 76 1014.5
20260903012350 82 49 2.0 4.0 0.00 0.00 0.00 77 1014.5
20260903011850 82 49 2.0 4.0 0.00 0.00 0.00 77 1014.4
20260903011350 82 49 2.0 4.0 0.00 0.00 0.00 77 1014.5
20260903010845 82 49 2.0 4.0 0.00 0.00 0.00 77 1014.3
20260903010340 82 49 2.0 4.0 0.00 0.00 0.00 77 1014.2
20260903005838 82 49 2.0 4.0 0.00 0.00 0.00 77 1014.4
20260903005334 83 7 2.0 2.0 0.00 0.00 0.00 76 1014.3
20260903004830 83 7 2.0 2.0 0.00 0.00 0.00 76 1014.2
20260903004325 83 2 1.0 2.0 0.00 0.00 0.00 76 1014.1
20260903003821 83 2 1.0 2.0 0.00 0.00 0.00 76 1014.3
20260903003316 83 2 1.0 2.0 0.00 0.00 0.00 76 1014.1
20260903002815 83 12 0.0 0.0 0.00 0.00 0.00 76 1014.2
20260903002315 84 62 0.0 1.0 0.00 0.00 0.00 75 1014.1
20260903001810 84 62 0.0 1.0 0.00 0.00 0.00 75 1014.1
20260903001306 84 62 0.0 1.0 0.00 0.00 0.00 75 1014.1
20260903000806 0 0.0 0.0 0.00 0.00 0.00 1014.2
20260903000303 0 0.0 0.0 0.00 0.00 0.00 1014.1
20260902235758 0 0.0 0.0 0.00 0.00 0.00 1014.2
20260902235254 0 0.0 0.0 0.00 0.00 0.00 1014.2
20260902234754 0 0.0 0.0 0.00 0.00 0.00 1014.0
20260902234253 0 0.0 0.0 0.00 0.00 0.00 1014.2
20260902233748 89 358 4.0 4.0 0.00 0.00 0.00 66 1014.2
20260902233248 89 358 4.0 4.0 0.00 0.00 0.00 66 1014.2
20260902232746 89 358 4.0 4.0 0.00 0.00 0.00 66 1014.1
20260902232240 89 358 4.0 4.0 0.00 0.00 0.00 66 1014.4
20260902231740 89 358 4.0 4.0 0.00 0.00 0.00 66 1014.2
20260902231235 89 358 4.0 4.0 0.00 0.00 0.00 66 1014.2
20260902230735 89 358 4.0 4.0 0.00 0.00 0.00 66 1014.0
20260902230234 89 358 4.0 4.0 0.00 0.00 0.00 66 1014.0
20260902225729 89 358 4.0 4.0 0.00 0.00 0.00 66 1013.9
20260902225224 89 358 4.0 4.0 0.00 0.00 0.00 66 1013.9
20260902224722 89 358 4.0 4.0 0.00 0.00 0.00 66 1014.0
20260902224218 89 358 4.0 4.0 0.00 0.00 0.00 66 1014.0
20260902223714 91 335 4.0 4.0 0.00 0.00 0.00 63 1013.9
20260902223213 91 335 4.0 4.0 0.00 0.00 0.00 63 1014.1
20260902222712 91 335 4.0 4.0 0.00 0.00 0.00 63 1014.2
20260902222207 91 335 4.0 4.0 0.00 0.00 0.00 63 1014.0
20260902221702 91 335 4.0 4.0 0.00 0.00 0.00 63 1014.1
20260902221200 91 335 4.0 4.0 0.00 0.00 0.00 63 1013.9
20260902220656 92 36 2.0 4.0 0.00 0.00 0.00 62 1013.9
20260902220151 92 36 2.0 4.0 0.00 0.00 0.00 62 1014.1
20260902215647 92 36 2.0 4.0 0.00 0.00 0.00 62 1014.1
20260902215142 92 36 2.0 4.0 0.00 0.00 0.00 62 1014.0
20260902214637 92 313 3.0 5.0 0.00 0.00 0.00 61 1014.3
20260902214136 92 4 8.0 9.0 0.00 0.00 0.00 59 1014.2
20260902213632 92 4 8.0 9.0 0.00 0.00 0.00 59 1014.0
20260902213131 92 4 8.0 9.0 0.00 0.00 0.00 59 1014.3
20260902212626 92 4 8.0 9.0 0.00 0.00 0.00 59 1014.1
20260902212123 93 28 4.0 9.0 0.00 0.00 0.00 63 1014.1
20260902211619 93 0 6.0 6.0 0.00 0.00 0.00 58 1014.4
20260902211114 93 0 6.0 6.0 0.00 0.00 0.00 58 1014.3
20260902210613 93 5 4.0 9.0 0.00 0.00 0.00 59 1014.5
20260902210109 93 5 4.0 9.0 0.00 0.00 0.00 59 1014.6
20260902205607 93 44 6.0 7.0 0.00 0.00 0.00 62 1014.5
20260902205103 93 44 6.0 7.0 0.00 0.00 0.00 62 1014.5
20260902204602 94 354 4.0 4.0 0.00 0.00 0.00 60 1014.6
20260902204057 93 6 4.0 5.0 0.00 0.00 0.00 58 1014.8
20260902203552 93 6 4.0 5.0 0.00 0.00 0.00 58 1014.6
20260902203051 95 334 3.0 5.0 0.00 0.00 0.00 60 1014.7
20260902202547 94 306 2.0 5.0 0.00 0.00 0.00 58 1014.7
20260902202044 94 306 2.0 5.0 0.00 0.00 0.00 58 1014.7
20260902201539 94 306 2.0 5.0 0.00 0.00 0.00 58 1014.6
20260902201033 93 6 4.0 6.0 0.00 0.00 0.00 58 1014.9
20260902200528 93 6 4.0 6.0 0.00 0.00 0.00 58 1014.9
20260902200025 93 6 4.0 6.0 0.00 0.00 0.00 58 1014.9
20260902195520 93 6 4.0 6.0 0.00 0.00 0.00 58 1014.9
20260902195018 93 6 4.0 6.0 0.00 0.00 0.00 58 1015.0
20260902194518 94 15 8.0 9.0 0.00 0.00 0.00 58 1015.1
20260902194014 94 34 4.0 6.0 0.00 0.00 0.00 63 1015.1
20260902193509 94 34 4.0 6.0 0.00 0.00 0.00 63 1015.1
20260902193009 94 328 2.0 3.0 0.00 0.00 0.00 64 1015.2
20260902192502 93 319 3.0 4.0 0.00 0.00 0.00 64 1015.1
20260902192002 93 319 3.0 4.0 0.00 0.00 0.00 64 1015.6
20260902191456 93 319 3.0 4.0 0.00 0.00 0.00 64 1015.3
20260902190951 93 319 3.0 4.0 0.00 0.00 0.00 64 1015.4
20260902190447 93 319 3.0 4.0 0.00 0.00 0.00 64 1015.4
20260902185942 93 319 3.0 4.0 0.00 0.00 0.00 64 1015.6
20260902185438 93 319 3.0 4.0 0.00 0.00 0.00 64 1015.3
20260902184933 93 319 3.0 4.0 0.00 0.00 0.00 64 1015.6
20260902184428 94 282 3.0 3.0 0.00 0.00 0.00 63 1015.7
20260902183924 93 11 7.0 9.0 0.00 0.00 0.00 61 1015.8
20260902183420 93 11 7.0 9.0 0.00 0.00 0.00 61 1015.8
20260902182915 93 11 7.0 9.0 0.00 0.00 0.00 61 1016.1
20260902182411 93 11 7.0 9.0 0.00 0.00 0.00 61 1016.0
20260902181908 93 11 7.0 9.0 0.00 0.00 0.00 61 1016.0
20260902181403 91 356 2.0 5.0 0.00 0.00 0.00 65 1016.2
20260902180857 92 13 3.0 5.0 0.00 0.00 0.00 63 1016.0
20260902180353 91 334 2.0 5.0 0.00 0.00 0.00 64 1016.3
20260902175848 92 340 4.0 5.0 0.00 0.00 0.00 65 1016.0
20260902175343 92 319 2.0 4.0 0.00 0.00 0.00 63 1016.2
20260902174838 92 285 1.0 2.0 0.00 0.00 0.00 64 1016.5
20260902174335 92 18 3.0 4.0 0.00 0.00 0.00 64 1016.4
20260902173825 92 18 3.0 4.0 0.00 0.00 0.00 64 1016.3
20260902173325 92 18 3.0 4.0 0.00 0.00 0.00 64 1016.4
20260902172819 91 17 3.0 3.0 0.00 0.00 0.00 67 1016.6
20260902172318 91 17 3.0 3.0 0.00 0.00 0.00 67 1016.8
20260902171808 91 295 1.0 2.0 0.00 0.00 0.00 66 1016.8
20260902171302 93 39 3.0 4.0 0.00 0.00 0.00 63 1016.7
20260902170754 93 39 3.0 4.0 0.00 0.00 0.00 63 1016.7
20260902170249 93 39 3.0 4.0 0.00 0.00 0.00 63 1017.0
20260902165745 92 350 4.0 4.0 0.00 0.00 0.00 63 1017.1
20260902165243 91 7 2.0 3.0 0.00 0.00 0.00 65 1016.9
20260902164738 91 18 3.0 4.0 0.00 0.00 0.00 68 1016.8
20260902164232 90 353 1.0 2.0 0.00 0.00 0.00 67 1017.0
20260902163727 89 16 2.0 4.0 0.00 0.00 0.00 69 1017.1
20260902163227 89 16 2.0 4.0 0.00 0.00 0.00 69 1016.9
20260902162725 89 16 2.0 4.0 0.00 0.00 0.00 69 1017.1
20260902162220 90 39 4.0 4.0 0.00 0.00 0.00 68 1017.0
20260902161715 90 39 1.0 3.0 0.00 0.00 0.00 69 1017.0
20260902161211 90 314 2.0 3.0 0.00 0.00 0.00 68 1016.9
20260902160708 91 33 2.0 4.0 0.00 0.00 0.00 69 1016.9
20260902160202 89 327 2.0 3.0 0.00 0.00 0.00 74 1017.1
20260902155700 89 34 2.0 4.0 0.00 0.00 0.00 72 1017.1
20260902155159 90 234 1.0 2.0 0.00 0.00 0.00 71 1017.2
20260902154655 89 31 3.0 4.0 0.00 0.00 0.00 72 1017.3
20260902154154 88 21 3.0 4.0 0.00 0.00 0.00 72 1017.5
20260902153654 89 278 1.0 4.0 0.00 0.00 0.00 72 1017.3
20260902153149 88 41 3.0 4.0 0.00 0.00 0.00 71 1017.4
20260902152645 88 18 2.0 3.0 0.00 0.00 0.00 73 1017.2
20260902152141 87 313 3.0 5.0 0.00 0.00 0.00 72 1017.3
20260902151636 87 329 2.0 3.0 0.00 0.00 0.00 73 1017.1
20260902151130 87 337 2.0 5.0 0.00 0.00 0.00 72 1017.3
20260902150626 87 326 2.0 4.0 0.00 0.00 0.00 75 1017.3
20260902150121 87 323 2.0 4.0 0.00 0.00 0.00 72 1017.3
20260902145616 87 5 2.0 4.0 0.00 0.00 0.00 73 1017.4
20260902145115 87 278 0.0 3.0 0.00 0.00 0.00 73 1017.2
20260902144613 87 5 3.0 3.0 0.00 0.00 0.00 74 1017.3
20260902144112 86 67 1.0 4.0 0.00 0.00 0.00 76 1017.1
20260902143607 86 2 2.0 3.0 0.00 0.00 0.00 75 1017.1
20260902143103 85 9 1.0 4.0 0.00 0.00 0.00 77 1017.1
20260902142559 84 0 2.0 5.0 0.00 0.00 0.00 77 1017.2
20260902142054 84 347 3.0 5.0 0.00 0.00 0.00 78 1017.2
20260902141554 83 349 2.0 6.0 0.00 0.00 0.00 79 1017.1
20260902141049 83 353 1.0 4.0 0.00 0.00 0.00 80 1017.2
20260902140543 83 53 2.0 4.0 0.00 0.00 0.00 81 1016.8
20260902140039 83 25 6.0 6.0 0.00 0.00 0.00 81 1016.9
20260902135533 82 317 2.0 5.0 0.00 0.00 0.00 81 1017.0
20260902135028 82 328 2.0 5.0 0.00 0.00 0.00 82 1016.9
20260902134523 82 347 3.0 6.0 0.00 0.00 0.00 82 1016.8
20260902134017 82 95 2.0 5.0 0.00 0.00 0.00 83 1016.6
20260902133512 82 5 3.0 7.0 0.00 0.00 0.00 82 1016.5
20260902133012 81 302 3.0 5.0 0.00 0.00 0.00 83 1016.7
20260902132507 81 319 2.0 4.0 0.00 0.00 0.00 83 1016.7
20260902132002 81 354 3.0 4.0 0.00 0.00 0.00 84 1016.6
20260902131459 81 358 2.0 5.0 0.00 0.00 0.00 84 1016.7
20260902130958 80 307 2.0 6.0 0.00 0.00 0.00 85 1016.8
20260902130454 80 338 2.0 5.0 0.00 0.00 0.00 85 1016.6
20260902125949 80 356 1.0 6.0 0.00 0.00 0.00 86 1016.7
20260902125445 80 335 1.0 5.0 0.00 0.00 0.00 86 1016.6
20260902124941 79 301 3.0 4.0 0.00 0.00 0.00 87 1016.6
20260902124437 79 317 3.0 6.0 0.00 0.00 0.00 87 1016.7
20260902123931 79 331 2.0 4.0 0.00 0.00 0.00 88 1016.8
20260902123428 78 358 2.0 3.0 0.00 0.00 0.00 89 1016.7
20260902122926 78 344 2.0 4.0 0.00 0.00 0.00 90 1016.8
20260902122422 78 346 1.0 3.0 0.00 0.00 0.00 90 1016.7
20260902121918 77 346 2.0 4.0 0.00 0.00 0.00 90 1016.6
20260902121412 77 353 1.0 4.0 0.00 0.00 0.00 90 1016.7
20260902120908 77 13 2.0 4.0 0.00 0.00 0.00 91 1016.8
20260902120404 76 24 3.0 4.0 0.00 0.00 0.00 92 1016.7
20260902115903 76 8 2.0 3.0 0.00 0.00 0.00 92 1016.7
20260902115359 75 359 2.0 3.0 0.00 0.00 0.00 92 1016.7
20260902114856 75 19 2.0 2.0 0.00 0.00 0.00 93 1016.5
20260902114351 75 25 2.0 3.0 0.00 0.00 0.00 93 1016.4
20260902113851 75 17 2.0 2.0 0.00 0.00 0.00 93 1016.6
20260902113347 75 12 2.0 4.0 0.00 0.00 0.00 93 1016.4
20260902112846 74 17 2.0 5.0 0.00 0.00 0.00 94 1016.5
20260902112343 74 39 2.0 2.0 0.00 0.00 0.00 94 1016.4
20260902111838 74 15 2.0 3.0 0.00 0.00 0.00 94 1016.5
20260902111335 74 8 2.0 2.0 0.00 0.00 0.00 94 1016.1
20260902110830 74 52 2.0 3.0 0.00 0.00 0.00 94 1016.2
20260902110326 74 27 3.0 3.0 0.00 0.00 0.00 94 1016.1
20260902105826 74 19 2.0 2.0 0.00 0.00 0.00 94 1016.0
20260902105321 74 0 2.0 3.0 0.00 0.00 0.00 94 1016.0
20260902104816 0 0.0 0.0 0.00 0.00 0.00 1016.0
20260902104312 74 348 2.0 2.0 0.00 0.00 0.00 94 1016.0
20260902103811 74 348 2.0 2.0 0.00 0.00 0.00 94 1016.0
20260902103306 74 348 2.0 2.0 0.00 0.00 0.00 94 1016.1
20260902102801 74 348 2.0 2.0 0.00 0.00 0.00 94 1016.0
20260902102259 74 348 2.0 2.0 0.00 0.00 0.00 94 1015.9
20260902101754 74 348 2.0 2.0 0.00 0.00 0.00 94 1016.2
20260902101250 74 348 2.0 2.0 0.00 0.00 0.00 94 1015.8
20260902100748 74 348 2.0 2.0 0.00 0.00 0.00 94 1016.0
20260902100243 74 348 2.0 2.0 0.00 0.00 0.00 94 1016.1
20260902095737 74 348 2.0 2.0 0.00 0.00 0.00 94 1015.9
20260902095232 74 348 2.0 2.0 0.00 0.00 0.00 94 1016.2
20260902094726 74 348 2.0 2.0 0.00 0.00 0.00 94 1016.0
20260902094223 74 19 2.0 3.0 0.00 0.00 0.00 94 1016.0
20260902093721 74 19 2.0 3.0 0.00 0.00 0.00 94 1016.1
20260902093217 75 9 2.0 2.0 0.00 0.00 0.00 94 1016.4
20260902092711 74 8 2.0 2.0 0.00 0.00 0.00 95 1016.0
20260902092207 74 8 2.0 2.0 0.00 0.00 0.00 95 1016.1
20260902091701 74 8 2.0 2.0 0.00 0.00 0.00 95 1016.3
20260902091158 74 8 2.0 2.0 0.00 0.00 0.00 95 1016.0
20260902090654 74 8 2.0 2.0 0.00 0.00 0.00 95 1016.2
20260902090153 74 8 2.0 2.0 0.00 0.00 0.00 95 1016.0
20260902085652 74 8 2.0 2.0 0.00 0.00 0.00 95 1016.2
20260902085147 74 42 1.0 1.0 0.00 0.00 0.00 95 1016.3
20260902084643 74 42 1.0 1.0 0.00 0.00 0.00 95 1016.3
20260902084139 74 50 2.0 2.0 0.00 0.00 0.00 95 1016.3
20260902083634 75 25 3.0 3.0 0.00 0.00 0.00 94 1016.4
20260902083133 75 38 1.0 2.0 0.00 0.00 0.00 94 1016.2
20260902082629 75 28 1.0 2.0 0.00 0.00 0.00 94 1016.2
20260902082126 75 359 1.0 1.0 0.00 0.00 0.00 94 1016.4
20260902081622 75 359 1.0 1.0 0.00 0.00 0.00 94 1016.2
20260902081122 75 13 1.0 2.0 0.00 0.00 0.00 94 1016.1
20260902080618 75 11 2.0 2.0 0.00 0.00 0.00 94 1016.0
20260902080114 75 355 2.0 2.0 0.00 0.00 0.00 94 1016.1
20260902075613 75 33 2.0 2.0 0.00 0.00 0.00 95 1015.9
20260902075110 75 33 2.0 3.0 0.00 0.00 0.00 95 1015.7
20260902074605 75 290 2.0 2.0 0.00 0.00 0.00 95 1015.9
20260902074100 75 356 1.0 2.0 0.00 0.00 0.00 95 1015.9
20260902073555 75 40 2.0 3.0 0.00 0.00 0.00 95 1016.1
20260902073052 75 36 3.0 3.0 0.00 0.00 0.00 96 1016.1
20260902072547 75 36 3.0 3.0 0.00 0.00 0.00 96 1016.1
20260902072044 75 25 0.0 2.0 0.00 0.00 0.00 96 1016.0
20260902071543 75 14 2.0 2.0 0.00 0.00 0.00 96 1016.1
20260902071039 75 22 0.0 2.0 0.00 0.00 0.00 97 1016.1
20260902070534 74 320 1.0 2.0 0.00 0.00 0.00 97 1016.0
20260902070029 74 38 1.0 1.0 0.00 0.00 0.00 97 1016.2
20260902065523 74 28 2.0 2.0 0.00 0.00 0.00 97 1016.2